544  
ASUS43 KTOP 191008  
RWRKS  
 
WEATHER ROUNDUP FOR KANSAS  
NATIONAL WEATHER SERVICE GOODLAND KS  
500 AM CDT FRI JUL 19 2019  
 
NOTE: "FAIR" INDICATES FEW OR NO CLOUDS BELOW 12,000 FEET WITH NO  
SIGNIFICANT WEATHER AND/OR S TO VISIBILITY
.  
 
KSZ001>006-013>018-027>032-041>047-191100-  
NORTHWEST KANSAS  
 
CITY SKY/WX TMP DP RH WIND PRES REMARKS
 
GOODLAND CLEAR 71 63 75 S13 29.80F  
HAYS CLEAR 77 68 73 S9 29.78S  
HILL CITY CLEAR 79 68 69 VRB5 29.76S  
RUSSELL CLEAR 80 66 62 S17 29.76F  

 
 
KSZ061>065-074>080-084>089-191100-  
SOUTHWEST KANSAS  
 
CITY SKY/WX TMP DP RH WIND PRES REMARKS
 
DODGE CITY CLEAR 77 66 68 S12 29.82F  
ELKHART CLEAR 78 61 55 S16 29.83S  
GARDEN CITY CLEAR 73 66 78 SE12 29.81S  
GREAT BEND CLEAR 78 68 71 S13 29.80S  
LIBERAL CLEAR 76 64 66 S13 29.83S  
PRATT CLEAR 78 66 65 S12 29.82F  

 
 
KSZ066>073-081>083-090>101-191100-  
SOUTHEAST KANSAS  
 
CITY SKY/WX TMP DP RH WIND PRES REMARKS
 
CHANUTE CLEAR 80 71 74 S14G23 29.87S  
COFFEYVILLE CLEAR 79 71 76 S12 29.86F  
HUTCHINSON CLEAR 79 68 69 S13G21 29.81F  
MEDICINE LODGE N/A 78 68 71 SE9 29.82S  
NEWTON N/A 79 68 69 S18 29.84S  
PARSONS CLEAR 79 72 79 S7 29.88S  
WICHITA INTL CLEAR 79 68 69 S14 29.83S  
WICHITA JABRA CLEAR 79 69 71 S13G22 29.83S  
WICHITA MCCONL CLEAR 79 68 68 SE15 29.84S  
WINFIELD CLEAR 77 69 76 S13 29.86S  

 
 
KSZ007>012-019>026-033>040-048>060-102>105-191100-  
NORTHEAST KANSAS  
 
CITY SKY/WX TMP DP RH WIND PRES REMARKS
 
CONCORDIA CLEAR 83 69 62 S25G35 29.74F  
EMPORIA CLEAR 77 71 82 S15 29.83S  
LAWRENCE CLEAR 81 70 69 S7 29.82S  
MANHATTAN CLEAR 81 69 67 SW10 29.78S  
MARYSVILLE CLEAR 81 70 69 S12G17 29.76S  
OLATHE IND CLEAR 79 70 74 S14 29.85S  
OLATHE EXE CLEAR 78 72 81 S12 29.84S  
SALINA CLEAR 81 68 64 S16 29.77F  
TOPEKA BILLARD CLEAR 82 71 69 S10 29.80S  
TOPEKA FORBES CLEAR 81 70 69 S16G24 29.80S  

 
 
 
CLICK HERE TO GO TO PREVIOUS BULLETINS.

The Nexlab KS Page Main Text Page